DMSP 5D-2 F13 DEB, 42265

Orbit data source: Space-Track

DMSP 5D-2 F13 DEB, 42265 is space debris in SSO originally from a launch on Fri, 24 Mar 1995 UTC launched from the Air Force Western Test Range (AFWTR). Debris objects in space refer to the collection of defunct objects orbiting the Earth. Examples of debris include non-operational satellites, rocket bodies, and fragments generated from explosions, collisions, or faulty payload assembly.

Loading next visibility...
Identifier
42265, 1995-015GF
Orbit
SSO
Country
Flag of USUS
Related business
Manufacturer
Unknown
Mission
Spacecraft
Bus & Motor
Unknown
Mass
Unknown
Launch date (UTC)
1995-03-24 (31 years ago)
Launch vehicle
Unknown
Launch site
Air Force Western Test Range (AFWTR)
Object type
Payload
Rocket body
Debris
Shape & HBR
Unknown shape, 0.1 m
Radar Cross Section
Small (<0.1 m²)

Expand to show TLE details & history
Last TLE update: 1 day ago

TLE from 1 day ago
0 DMSP 5D-2 F13 DEB
1 42265U 95015GF  25305.88590202  .00005452  00000-0  18719-2 0  9992
2 42265  98.6968 337.4968 0003189 341.4170  18.6899 14.36502067515947
Epoch: 2025-11-01T21:15Z
TLE epoch observation values (Epoch: 2025-11-01T21:15:41.934Z)
Latitude
0.00001°
Longitude
-22.83748°
Altitude
770.857 km
Speed
7.47 km/s
True Right ascension
22h 29m 59s
True Declination
0° 00' 00"
Sunlit
Object was in full shadow at epoch
Visualization orbit readout
Latitude
Unknown
Longitude
Unknown
Altitude
Unknown
Speed
Unknown
Apparent Right ascension
Unknown
Apparent Declination
Unknown
Sunlit
N/A
Visualization observer readout
Local Sidereal Time
22:28:30
Azimuth
Unknown
Elevation
Unknown
Doppler factor
Unknown
Orbital elements
Apogee altitude
769.494 km
Perigee altitude
764.936 km
Semi-major axis
7,145.352 km
Eccentricity
0.00032
Inclination
98.6968°
RAAN
337.4968°
Arg. of periapsis
341.417°
True anomaly
18.70161°
Mean anomaly
18.6899°
Eccentric anomaly
18.69576°
Mean motion
3.59342 °/min
Orbital period
100.18 mins
BSTAR
0.0018719
Loading maneuver chart data...
Computing Atmospheric mass density...

Documentation

Showing up to 5 results
|